Regional Weather Roundup
Issued by NWS

Home | Current Version | Previous Version | Graphics & Text | Print | Product List | Glossary On
Versions: 1 2 3 4 5 6 7 8 9 10 11 12 13 14 15 16 17 18 19 20 21 22 23 24 25 26 27
000
ASUS45 KSLC 230810
RWRUT

UTAH REGIONAL WEATHER ROUNDUP
NATIONAL WEATHER SERVICE SALT LAKE CITY UT
200 AM MDT SAT SEP 23 2017

UTZ001>011-023>025-230900-

NORTHERN UTAH

CITY           SKY/WX    TMP DP  RH WIND       PRES   REMARKS
BRIGHAM CITY   CLEAR     40  36  86 CALM      29.99R
HILL AFB       MOCLDY    41  34  74 E7        29.96S
LOGAN          CLEAR     38  36  92 E5        30.00R WCI  34
OGDEN          PTCLDY    44  34  67 NE12      29.96S
SALT LAKE CITY MOCLDY    45  41  86 N6        29.96S
TOOELE VALLEY  CLEAR     41  36  81 SE3       29.98R
WENDOVER       MOCLDY    40  37  89 E3        30.00S
HEBER CITY     CLEAR     32  32 100 CALM      29.96R
WEST JORDAN    CLEAR     42  41  95 W6        29.97S

$$

UTZ011>015-024>027-230900-

CENTRAL/NORTHEAST UTAH

CITY           SKY/WX    TMP DP  RH WIND       PRES   REMARKS
PROVO AIRPORT  CLEAR     40  37  89 E3        29.97R
MOAB/CANYONLAN CLEAR     52  29  41 VRB3      29.79R
DELTA          CLEAR     37  36  93 NW7       29.95S WCI  32
PRICE          PTCLDY    46  26  45 N7        29.88R
RICHFIELD      CLEAR     43  36  75 NE6       29.96R
ROOSEVELT      CLOUDY    43  30  61 CALM      29.94R
VERNAL         PTCLDY    48  35  60 N9        29.91F

$$

UTZ013>016-019>022-027-230900-

SOUTHERN UTAH

CITY           SKY/WX    TMP DP  RH WIND       PRES   REMARKS
BRYCE CANYON   CLEAR     33  30  88 N6        29.94S WCI  28
CEDAR CITY     CLOUDY    41  38  89 N8        29.92S
MILFORD        CLEAR     40  37  89 N13       29.94R WCI  32
ST GEORGE      SUNNY     58  38  47 NE12      29.81S
HANKSVILLE     CLEAR     48  32  53 CALM      29.84R
KANAB          CLEAR     36  21  55 NE6       29.89S WCI  31
BLANDING         N/A     58  29  33 S9        29.94S

$$

REGIONAL REPORTS     COLORADO/ARIZONA

CITY           SKY/WX    TMP DP  RH WIND       PRES   REMARKS
CRAIG, CO      CLOUDY    42  37  82 N6        29.97R
GRAND JUNCTION CLEAR     58  33  39 NE9       29.78S
RIFLE, CO      CLOUDY    56  40  55 VRB3      29.84R
MONTROSE, CO   MOCLDY    62  33  33 SE8       29.88S
CORTEZ, CO     PTCLDY    50  44  80 NE5       29.90R
PAGE, AZ       CLEAR     57  22  25 SW5       29.80R
GRAND CANYON   CLEAR     26  13  57 CALM      29.91S
KINGMAN, AZ    CLEAR     48  25  40 CALM      29.80S
FLAGSTAFF, AZ  CLEAR     39  30  70 SW3       29.92S

$$

REGIONAL REPORTS    NEVADA/IDAHO/WYOMING

CITY           SKY/WX    TMP DP  RH WIND       PRES   REMARKS
LAS VEGAS, NV  CLEAR     66  26  22 N8        29.76S
ELY, NY        FOG       30  30 100 N6        29.99S VSB 1/4 WCI  24
ELKO, NV       CLEAR     31  29  92 W3        30.01S
POCATELLO, ID  CLEAR     35  32  88 SE5       30.03R WCI  31
BURLEY, ID     CLEAR     34  32  92 SW3       30.01R
FORT BRIDGER,  CLOUDY    37  37 100 S6        30.03R WCI  32
EVANSTON, WY   CLOUDY    34  31  88 NW7       29.99S WCI  28
ROCK SPRINGS,  CLOUDY    36  33  89 S3        30.01R
KEMMERER, WY     N/A     34  32  93 NW3       30.00S

$$




USA.gov is the U.S. government's official web portal to all federal, state and local government web resources and services.